DateTime,F1_A11,F1_S11,BsB_S11,BsG_S11,BsR_S11,BbsB_S11,BbsG_S11,BbsR_S11,BaB_A11,BaG_A11,BaR_A11,T_S11,U_S11,P_S11,T1_A11
2016-01-12T00:00:00Z,0000380,21000600,,,,,,,,,,25.2,00.0,0655.7,34.2
2016-01-12T00:01:00Z,0000380,21000600,,,,,,,,,,25.2,00.0,0655.8,34.2
2016-01-12T00:02:00Z,0000380,21000600,,,,,,,,,,25.2,00.0,0655.8,34.2
2016-01-12T00:03:00Z,0000380,61000600,,,,,,,,,,25.2,00.0,0655.8,34.2
2016-01-12T00:04:00Z,0000380,41000600,0000.84,0000.79,0000.07,0000.56,-000.26,0000.05,0000.23,0000.15,0000.00,25.2,00.0,0656.5,34.2
2016-01-12T00:05:00Z,0000380,01000600,0000.19,0000.48,0000.18,0000.18,-000.26,0000.19,-000.09,0000.15,-000.24,25.2,00.0,0656.5,34.2
2016-01-12T00:06:00Z,0000380,01000600,-000.04,0000.07,0000.11,-000.14,-000.21,0000.45,0000.03,-000.09,-000.05,25.2,00.0,0656.5,34.2
2016-01-12T00:07:00Z,0000380,01000600,-000.83,0000.47,0000.11,0000.21,-000.30,0000.21,0000.04,0000.05,0000.30,25.2,00.0,0656.5,34.2
2016-01-12T00:08:00Z,0000380,01000600,-000.52,0000.47,0000.14,0000.85,-000.21,0000.34,0000.10,-000.04,-000.13,25.2,00.0,0656.5,34.2
2016-01-12T00:09:00Z,0000380,01000600,0000.83,0000.43,0000.05,0000.21,-000.21,0000.06,0000.02,0000.00,0000.11,25.2,00.0,0656.5,34.2
2016-01-12T00:10:00Z,0000380,01000600,0000.05,0000.20,0000.20,0000.18,0000.05,0000.51,0000.16,0000.15,-000.19,25.3,00.0,0656.5,34.2
2016-01-12T00:11:00Z,0000380,01000600,-000.15,0000.25,-000.10,-000.18,-000.08,-000.11,0000.29,0000.07,0000.04,25.3,00.0,0656.5,34.2
2016-01-12T00:12:00Z,0000380,01000600,0000.20,0000.21,0000.13,-000.42,-000.13,-000.26,-000.12,0000.01,0000.44,25.3,00.0,0656.5,34.2
2016-01-12T00:13:00Z,0000380,01000600,0000.37,0000.06,0000.02,0000.48,-000.19,-000.29,0000.11,0000.05,-000.48,25.3,00.0,0656.5,34.2
2016-01-12T00:14:00Z,0000380,01000600,0000.07,0000.16,0000.24,-000.16,-000.40,-000.06,0000.18,-000.00,0000.34,25.3,00.0,0656.5,34.2
2016-01-12T00:15:00Z,0000380,01000600,-000.40,0000.31,-000.13,-000.14,0000.05,-000.05,-000.09,-000.00,0000.02,25.3,00.0,0656.5,34.3
2016-01-12T00:16:00Z,0000380,01000600,-000.57,-000.01,-000.01,0000.16,-000.11,0000.35,0000.04,0000.19,-000.05,25.3,00.0,0656.5,34.3
2016-01-12T00:17:00Z,0000380,01000600,0000.27,0000.02,-000.02,0000.27,0000.50,0000.19,0000.13,0000.11,-000.00,25.3,00.0,0656.5,34.3
2016-01-12T00:18:00Z,0000380,01000600,-000.96,0000.34,0000.41,0000.24,-000.35,0000.26,0000.09,0000.09,0000.23,25.2,00.0,0656.5,34.3
2016-01-12T00:19:00Z,0000380,01000600,-000.25,0000.16,0000.05,0001.06,-000.02,-000.16,-000.09,-000.17,-000.10,25.2,00.0,0656.5,34.3
2016-01-12T00:20:00Z,0000380,01000600,0001.46,0000.19,0000.26,-000.11,0000.35,0000.35,0000.10,0000.11,-000.10,25.2,00.0,0656.5,34.3
2016-01-12T00:21:00Z,0000380,01000600,0000.89,-000.07,-000.36,0000.16,-000.06,0000.29,0000.00,-000.09,0000.10,25.2,00.0,0656.5,34.3
2016-01-12T00:22:00Z,0000380,01000600,0000.41,0000.83,0000.41,0000.16,0000.34,0000.35,-000.06,0000.20,-000.01,25.2,00.0,0656.5,34.3
2016-01-12T00:23:00Z,0000380,01000600,-001.08,0000.35,0000.24,0000.56,-000.22,0000.18,0000.19,-000.01,-000.07,25.2,00.0,0656.5,34.3
2016-01-12T00:24:00Z,0000380,01000600,-000.29,0000.30,0000.42,0000.37,0000.02,0000.08,0000.06,-000.09,0000.14,25.2,00.0,0656.5,34.3
2016-01-12T00:25:00Z,0000380,01000600,-000.12,0000.10,0000.42,-000.08,-000.43,0000.24,0000.08,0000.16,-000.07,25.2,00.0,0656.5,34.3
2016-01-12T00:26:00Z,0000380,01000600,0001.44,0000.29,-000.07,0000.24,-000.19,0000.02,0000.05,0000.08,0000.37,25.2,00.0,0656.5,34.3
2016-01-12T00:27:00Z,0000380,01000600,0000.41,-000.10,-000.22,-000.02,0000.22,0000.37,-000.08,-000.04,-000.03,25.3,00.0,0656.4,34.3
2016-01-12T00:28:00Z,0000380,01000600,-000.09,-000.09,0000.61,0000.16,0000.06,0000.10,0000.17,0000.13,0000.05,25.3,00.0,0656.5,34.3
2016-01-12T00:29:00Z,0000380,01000600,-000.14,0000.40,-000.07,0000.47,0000.10,-000.06,0000.03,0000.06,-000.09,25.3,00.0,0656.4,34.3
2016-01-12T00:30:00Z,0000380,01000600,0000.05,0001.00,0000.10,0000.02,-000.29,-000.02,0000.06,-000.18,0000.35,25.3,00.0,0656.4,34.3
2016-01-12T00:31:00Z,0000380,01000600,0000.21,0000.26,0000.54,0000.24,0000.22,0000.13,0000.16,0000.43,0000.02,25.3,00.0,0656.4,34.3
2016-01-12T00:32:00Z,0000380,01000600,0000.36,-000.16,0000.49,0000.05,-000.29,-000.19,-000.07,-000.10,-000.30,25.2,00.0,0656.4,34.3
2016-01-12T00:33:00Z,0000380,01000600,-001.09,0000.06,0000.28,0000.29,0000.43,0000.06,0000.02,0000.03,-000.09,25.2,00.0,0656.4,34.3
2016-01-12T00:34:00Z,0000380,01000600,0000.22,0000.00,0000.25,0000.05,-000.57,0000.05,-000.12,0000.01,0000.25,25.1,00.0,0656.4,34.3
2016-01-12T00:35:00Z,0000380,01000600,-000.47,0000.36,0000.34,0000.13,-000.45,0000.10,0000.26,0000.05,0000.04,25.1,00.0,0656.4,34.3
2016-01-12T00:36:00Z,0000380,01000600,-000.37,-000.05,0000.47,0000.14,0000.00,-000.08,0000.09,0000.05,-000.18,25.0,00.0,0656.4,34.3
2016-01-12T00:37:00Z,0000380,01000600,-000.42,0000.37,-000.27,-000.06,-000.10,0000.34,-000.10,0000.12,0000.18,25.0,00.0,0656.4,34.3
2016-01-12T00:38:00Z,0000380,01000600,-000.55,0000.14,0000.25,0000.08,0000.10,-000.11,0000.05,-000.12,-000.07,25.0,00.0,0656.4,34.3
2016-01-12T00:39:00Z,0000380,01000600,-000.06,-000.60,0000.21,0000.56,-000.51,-000.11,0000.02,0000.02,0000.10,25.1,00.0,0656.4,34.3
2016-01-12T00:40:00Z,0000380,01000600,0000.60,0000.19,0000.26,0000.00,0000.24,0000.11,0000.15,0000.12,-000.05,25.1,00.0,0656.3,34.3
2016-01-12T00:41:00Z,0000380,01000600,0000.48,0000.23,0000.13,-000.18,-000.16,-000.11,-000.07,0000.16,0000.05,25.1,00.0,0656.3,34.3
2016-01-12T00:42:00Z,0000380,01000600,0000.10,0000.43,0000.25,0000.50,0000.05,0000.66,0000.17,-000.07,0000.15,25.2,00.0,0656.3,34.3
2016-01-12T00:43:00Z,0000380,01000600,-000.48,0000.20,0000.00,0000.27,0000.26,-000.16,-000.03,0000.02,-000.26,25.2,00.0,0656.4,34.3
2016-01-12T00:44:00Z,0000380,01000600,0000.13,0000.45,0000.25,0000.42,-000.02,0000.10,0000.11,0000.14,-000.02,25.2,00.0,0656.4,34.3
2016-01-12T00:45:00Z,0000380,01000600,-000.49,0000.13,-000.10,0000.51,0000.02,-000.14,0000.15,0000.08,0000.45,25.2,00.0,0656.4,34.3
2016-01-12T00:46:00Z,0000380,01000600,0000.10,0000.36,0000.08,0000.19,0000.16,-000.05,-000.09,-000.20,-000.38,25.1,00.0,0656.5,34.3
2016-01-12T00:47:00Z,0000380,01000600,0001.22,0000.54,0000.06,0000.22,0000.08,0000.19,0000.13,0000.02,0000.30,25.1,00.0,0656.5,34.3
2016-01-12T00:48:00Z,0000380,01000600,-000.92,0000.16,0000.28,0000.21,-000.32,-000.02,0000.11,0000.24,-000.06,25.0,00.0,0656.5,34.3
2016-01-12T00:49:00Z,0000380,01000600,-000.55,-000.38,-000.37,0000.27,-000.33,0000.05,0000.09,0000.09,0000.20,25.0,00.0,0656.6,34.3
2016-01-12T00:50:00Z,0000380,01000600,-000.56,0000.46,0000.22,-000.43,0000.29,0000.22,-000.13,-000.07,-000.28,25.0,00.0,0656.6,34.3
2016-01-12T00:51:00Z,0000380,01000600,-000.05,0000.25,0000.15,0000.24,-000.03,0000.34,-000.01,-000.03,-000.02,25.0,00.0,0656.6,34.3
2016-01-12T00:52:00Z,0000380,01000600,-000.23,-000.14,0000.39,0000.10,-000.21,0000.63,0000.12,0000.09,0000.14,25.0,00.0,0656.6,34.3
2016-01-12T00:53:00Z,0000380,01000600,0001.02,0000.92,0000.10,0000.32,0000.19,-000.05,0000.03,-000.04,-000.13,25.0,00.0,0656.6,34.3
2016-01-12T00:54:00Z,0000380,01000600,-000.57,-000.12,0000.43,0000.14,-000.02,0000.11,0000.05,-000.08,0000.22,25.0,00.0,0656.6,34.3
2016-01-12T00:55:00Z,0000380,01000600,0000.13,-000.04,0000.16,0000.67,0000.11,0000.14,-000.05,0000.24,-000.01,25.0,00.0,0656.6,34.3
2016-01-12T00:56:00Z,0000380,01000600,0001.00,0000.33,-000.11,0000.13,0000.05,-000.08,0000.25,-000.17,0000.09,25.0,00.0,0656.5,34.3
2016-01-12T00:57:00Z,0000380,41000600,,,,,,,,,,,,0656.5,34.3
2016-01-12T00:58:00Z,0000380,61000600,,,,,,,,,,24.8,00.0,0655.9,34.3
2016-01-12T00:59:00Z,0000380,21000600,,,,,,,,,,24.8,00.0,0655.9,34.3
2016-01-12T01:00:00Z,0000380,21000600,,,,,,,,,,24.8,00.0,0655.9,34.3
2016-01-12T01:01:00Z,0000380,21000600,,,,,,,,,,24.8,00.0,0655.9,34.3
2016-01-12T01:02:00Z,0000380,21000600,,,,,,,,,,24.8,00.0,0655.9,34.3
2016-01-12T01:03:00Z,0000380,61000600,,,,,,,,,,24.9,00.0,0655.9,34.3
2016-01-12T01:04:00Z,0000380,41000600,-000.31,-000.22,-000.27,-000.53,0000.06,-000.06,0000.13,-000.05,0000.07,25.1,00.0,0656.7,34.3
2016-01-12T01:05:00Z,0000380,01000600,0001.16,-000.72,-000.07,-000.99,-000.13,0000.03,-000.06,0000.13,0000.14,25.0,00.0,0656.8,34.3
2016-01-12T01:06:00Z,0000380,01000600,0000.52,-000.13,0000.05,-000.06,0000.33,-000.03,0000.11,0000.05,-000.32,25.0,00.0,0656.7,34.3
2016-01-12T01:07:00Z,0000380,01000600,0000.76,-000.69,0000.30,-000.13,0000.19,0000.30,-000.06,-000.17,0000.06,25.0,00.0,0656.7,34.3
2016-01-12T01:08:00Z,0000380,01000600,0000.28,0000.24,0000.04,-000.29,0000.72,0000.10,0000.12,0000.01,-000.07,25.0,00.0,0656.7,34.3
2016-01-12T01:09:00Z,0000380,01000600,0000.09,-000.33,0000.26,0000.32,0000.19,-000.08,-000.12,0000.04,0000.03,25.0,00.0,0656.7,34.3
2016-01-12T01:10:00Z,0000380,01000600,0000.04,0000.10,0000.02,0000.02,-000.19,0000.02,0000.21,0000.22,0000.23,25.1,00.0,0656.7,34.3
2016-01-12T01:11:00Z,0000380,01000600,0000.12,0000.09,0000.02,-000.54,0000.10,-000.45,0000.07,-000.10,-000.25,25.1,00.0,0656.7,34.3
2016-01-12T01:12:00Z,0000380,01000600,-000.45,0000.04,0000.18,-000.62,0000.00,-000.10,0000.16,0000.03,0000.15,25.1,00.0,0656.8,34.3
2016-01-12T01:13:00Z,0000380,01000600,0001.08,-000.07,0000.34,-000.32,0000.02,-000.22,-000.26,-000.04,-000.01,25.2,00.0,0656.7,34.3
2016-01-12T01:14:00Z,0000380,01000600,-000.98,0000.11,0000.12,-000.27,-000.27,-000.14,0000.23,0000.11,0000.01,25.2,00.0,0656.8,34.3
2016-01-12T01:15:00Z,0000380,01000600,0000.61,0000.09,-000.07,-000.71,0000.00,-000.18,-000.01,0000.02,-000.07,25.2,00.0,0656.8,34.3
2016-01-12T01:16:00Z,0000380,01000600,0000.34,0000.07,-000.15,-000.22,-000.19,-000.06,0000.09,0000.02,0000.11,25.1,00.0,0656.8,34.3
2016-01-12T01:17:00Z,0000380,01000600,0000.75,-000.34,0000.12,0000.00,-000.03,-000.18,-000.06,0000.04,0000.16,25.1,00.0,0656.8,34.3
2016-01-12T01:18:00Z,0000380,01000600,0000.59,-000.27,0000.38,-000.78,-000.11,-000.46,0000.06,0000.06,0000.09,25.0,00.0,0656.9,34.3
2016-01-12T01:19:00Z,0000380,01000600,0000.71,-000.53,-000.05,-000.29,0000.30,-000.45,0000.01,0000.05,-000.22,25.0,00.0,0656.9,34.3
2016-01-12T01:20:00Z,0000380,01000600,0000.66,-000.38,-000.39,-000.62,-000.27,-000.02,0000.01,0000.18,0000.15,25.0,00.0,0656.9,34.3
2016-01-12T01:21:00Z,0000380,01000600,0000.83,0000.02,-000.11,-000.67,-000.19,-000.06,-000.01,-000.20,-000.00,24.9,00.0,0656.9,34.3
2016-01-12T01:22:00Z,0000380,01000600,0000.19,-000.06,0000.22,-000.29,0000.10,0000.06,-000.00,0000.02,-000.22,25.0,00.0,0657.0,34.3
2016-01-12T01:23:00Z,0000380,01000600,0000.89,0000.08,0000.16,0000.02,0000.05,0000.05,-000.05,0000.02,0000.19,25.0,00.0,0657.0,34.3
2016-01-12T01:24:00Z,0000380,01000600,0000.81,0000.05,-000.30,-000.05,-000.08,-000.42,0000.12,0000.12,0000.22,25.0,00.0,0657.0,34.3
2016-01-12T01:25:00Z,0000380,01000600,0000.00,-000.02,0000.05,-000.02,0000.19,-000.05,-000.04,0000.09,0000.16,25.0,00.0,0657.0,34.3
2016-01-12T01:26:00Z,0000380,01000600,0000.79,-000.25,0000.00,0000.06,-000.51,-000.18,-000.03,-000.10,-000.26,25.0,00.0,0657.0,34.3
2016-01-12T01:27:00Z,0000380,01000600,0000.41,-000.02,0000.22,0000.00,0000.35,-000.13,0000.21,0000.09,-000.08,25.0,00.0,0657.0,34.3
2016-01-12T01:28:00Z,0000380,01000600,0000.29,0000.15,-000.02,-000.03,0000.10,0000.03,-000.10,0000.02,0000.07,25.0,00.0,0657.0,34.3
2016-01-12T01:29:00Z,0000380,01000600,0000.49,0000.30,0000.31,-000.22,0000.22,-000.27,0000.04,0000.12,0000.47,25.1,00.0,0656.9,34.3
2016-01-12T01:30:00Z,0000380,01000600,0000.25,0000.10,-000.07,0000.21,0000.10,0000.27,0000.24,-000.09,-000.21,25.1,00.0,0656.9,34.3
2016-01-12T01:31:00Z,0000380,01000600,-000.17,0000.25,-000.17,-000.14,-000.29,-000.14,-000.06,0000.20,-000.17,25.2,00.0,0656.9,34.3
2016-01-12T01:32:00Z,0000380,01000600,-000.75,-000.30,0000.43,-000.72,-000.11,-000.05,0000.07,0000.01,0000.13,25.2,00.0,0656.9,34.3
2016-01-12T01:33:00Z,0000380,01000600,0000.07,0000.30,0000.15,-000.32,0000.10,0000.13,-000.03,-000.05,0000.10,25.1,00.0,0656.9,34.3
2016-01-12T01:34:00Z,0000380,01000600,0000.07,0000.04,0000.40,-000.50,-000.14,-000.11,0000.16,0000.09,-000.04,25.1,00.0,0657.0,34.3
2016-01-12T01:35:00Z,0000380,01000600,0001.20,-000.31,0000.11,-000.86,0000.11,0000.18,0000.02,0000.15,-000.19,25.1,00.0,0657.0,34.3
2016-01-12T01:36:00Z,0000380,01000600,0000.20,0000.18,0000.14,-000.26,-000.14,-000.30,-000.15,-000.06,0000.18,25.0,00.0,0657.0,34.3
2016-01-12T01:37:00Z,0000380,01000600,0000.16,0000.14,0000.00,-000.40,0000.43,-000.27,0000.17,-000.07,-000.08,25.0,00.0,0657.0,34.3
2016-01-12T01:38:00Z,0000380,01000600,-000.62,0000.38,0000.13,-000.93,0000.19,0000.02,0000.02,-000.04,0000.14,25.0,00.0,0657.0,34.3
2016-01-12T01:39:00Z,0000380,01000600,-000.35,0000.48,0000.08,0000.35,0000.38,-000.21,0000.12,0000.09,0000.24,25.0,00.0,0657.0,34.3
2016-01-12T01:40:00Z,0000380,01000600,-000.27,0000.19,0000.12,-000.14,0000.05,-000.14,-000.13,0000.01,-000.10,25.1,00.0,0657.0,34.3
2016-01-12T01:41:00Z,0000380,01000600,-000.30,-000.36,0000.04,-000.22,0000.27,-000.10,0000.05,0000.09,-000.18,25.1,00.0,0657.0,34.3
2016-01-12T01:42:00Z,0000380,01000600,0000.87,0000.33,0000.13,0000.05,-000.18,-000.26,0000.09,0000.00,0000.33,25.1,00.0,0657.0,34.3
2016-01-12T01:43:00Z,0000380,01000600,0000.94,0000.03,0000.04,-000.14,0000.48,-000.18,-000.08,0000.08,-000.19,25.2,00.0,0657.0,34.3
2016-01-12T01:44:00Z,0000380,01000600,0000.16,-000.04,-000.24,0000.38,0000.22,-000.40,0000.08,-000.07,0000.12,25.2,00.0,0657.1,34.3
2016-01-12T01:45:00Z,0000380,01000600,-000.15,0000.19,0000.32,-000.56,0000.14,-000.10,0000.38,0000.15,0000.04,25.2,00.0,0657.1,34.3
2016-01-12T01:46:00Z,0000380,01000600,0000.78,0000.36,0000.43,-000.69,0000.22,0000.00,-000.27,-000.04,0000.03,25.2,00.0,0657.1,34.3
2016-01-12T01:47:00Z,0000380,01000600,-000.14,0000.39,0000.44,-000.06,0000.02,0000.06,0000.08,0000.03,-000.01,25.2,00.0,0657.2,34.3
2016-01-12T01:48:00Z,0000380,01000600,-000.38,-000.35,0000.88,-000.22,0000.22,0000.21,-000.02,0000.11,0000.00,25.2,00.0,0657.2,34.3
2016-01-12T01:49:00Z,0000380,01000600,0000.81,0000.09,-000.02,-000.19,-000.03,0000.00,0000.32,0000.02,0000.02,25.1,00.0,0657.2,34.3
2016-01-12T01:50:00Z,0000380,01000600,0000.08,-000.18,-000.20,-000.38,-000.11,-000.13,-000.13,0000.02,-000.09,25.1,00.0,0657.2,34.3
2016-01-12T01:51:00Z,0000380,01000600,0000.00,-000.39,-000.15,0000.06,0000.03,-000.05,0000.06,-000.12,0000.19,25.1,00.0,0657.3,34.3
2016-01-12T01:52:00Z,0000380,01000600,0000.05,-000.09,0000.05,-000.27,0000.16,-000.05,-000.04,0000.02,-000.22,25.1,00.0,0657.3,34.3
2016-01-12T01:53:00Z,0000380,01000600,-000.16,-000.10,-000.10,-000.13,-000.02,-000.08,0000.15,0000.13,0000.09,25.1,00.0,0657.3,34.3
2016-01-12T01:54:00Z,0000380,01000600,0000.61,0000.09,-000.18,-000.27,0000.05,-000.03,-000.11,-000.00,0000.21,25.1,00.0,0657.3,34.3
2016-01-12T01:55:00Z,0000380,01000600,0000.31,-000.36,-000.11,-000.35,0000.53,-000.06,0000.27,0000.18,0000.23,25.2,00.0,0657.2,34.3
2016-01-12T01:56:00Z,0000380,01000600,-000.55,-000.18,0000.11,-000.56,-000.06,-000.10,-000.10,-000.06,-000.24,25.2,00.0,0657.2,34.3
2016-01-12T01:57:00Z,0000380,41000600,,,,,,,,,,,,0657.2,34.3
2016-01-12T01:58:00Z,0000380,61000600,,,,,,,,,,25.0,00.0,0656.5,34.3
2016-01-12T01:59:00Z,0000380,21000600,,,,,,,,,,25.0,00.0,0656.5,34.3
2016-01-12T02:00:00Z,0000380,21000600,,,,,,,,,,25.0,00.0,0656.5,34.3
2016-01-12T02:01:00Z,0000380,21000600,,,,,,,,,,25.0,00.0,0656.5,34.3
2016-01-12T02:02:00Z,0000380,21000600,,,,,,,,,,25.0,00.0,0656.5,34.3
2016-01-12T02:03:00Z,0000380,61000600,,,,,,,,,,25.0,00.0,0656.5,34.3
2016-01-12T02:04:00Z,0000380,41000600,0000.48,0000.75,0000.23,0000.21,0000.14,-000.26,0000.10,-000.07,0000.08,25.2,00.0,0657.2,34.3
2016-01-12T02:05:00Z,0000380,01000600,0000.64,0000.58,-000.17,-000.05,-000.14,-000.21,0000.06,0000.09,-000.06,25.1,00.0,0657.3,34.3
2016-01-12T02:06:00Z,0000380,01000600,-000.60,0000.34,0000.52,0000.18,-000.54,-000.19,-000.03,-000.13,-000.08,25.1,00.0,0657.3,34.3
2016-01-12T02:07:00Z,0000380,01000600,-000.57,0000.00,-000.05,0000.05,0000.27,0000.08,0000.01,0000.05,0000.08,25.1,00.0,0657.3,34.3
2016-01-12T02:08:00Z,0000380,01000600,0000.08,0000.06,-000.11,-000.64,0000.18,-000.11,0000.15,-000.06,0000.12,25.1,00.0,0657.3,34.3
2016-01-12T02:09:00Z,0000380,01000600,0000.64,-000.17,0000.31,-000.42,-000.33,0000.11,-000.02,0000.05,-000.14,25.1,00.0,0657.3,34.3
2016-01-12T02:10:00Z,0000380,01000600,0000.39,-000.08,0000.79,0000.29,0000.21,0000.22,-000.10,0000.22,0000.20,25.2,00.0,0657.3,34.3
2016-01-12T02:11:00Z,0000380,01000600,-000.44,0000.43,0000.36,-000.16,0000.21,0000.11,0000.11,-000.12,-000.08,25.2,00.0,0657.3,34.3
2016-01-12T02:12:00Z,0000380,01000600,-000.79,-000.05,0000.90,0000.24,0000.14,0000.11,0000.17,0000.08,-000.05,25.2,00.0,0657.3,34.3
2016-01-12T02:13:00Z,0000380,01000600,-000.46,0000.79,0000.08,-000.54,-000.08,0000.08,-000.05,0000.07,-000.01,25.2,00.0,0657.2,34.3
2016-01-12T02:14:00Z,0000380,01000600,0000.04,-000.04,-000.10,0000.29,-000.10,-000.06,0000.08,-000.10,0000.28,25.2,00.0,0657.2,34.3
2016-01-12T02:15:00Z,0000380,01000600,-000.73,-000.15,0000.12,0000.46,0000.18,0000.14,0000.06,0000.05,-000.17,25.2,00.0,0657.2,34.3
2016-01-12T02:16:00Z,0000380,01000600,0000.74,-000.23,-000.18,-000.16,0000.00,-000.03,-000.01,0000.23,0000.24,25.2,00.0,0657.2,34.3
2016-01-12T02:17:00Z,0000380,01000600,-000.85,0000.43,-000.10,-000.48,0000.22,-000.22,0000.03,0000.01,-000.05,25.1,00.0,0657.2,34.3
2016-01-12T02:18:00Z,0000380,01000600,-000.51,0000.27,0000.11,0000.64,-000.11,0000.03,0000.02,-000.09,-000.03,25.1,00.0,0657.2,34.3
2016-01-12T02:19:00Z,0000380,01000600,-000.17,0000.15,0000.19,-000.94,0000.10,0000.08,0000.23,-000.01,-000.06,25.0,00.0,0657.2,34.3
2016-01-12T02:20:00Z,0000380,01000600,-000.29,0000.12,0000.03,-000.08,-000.40,-000.19,-000.15,0000.22,0000.10,25.0,00.0,0657.2,34.3
2016-01-12T02:21:00Z,0000380,01000600,-000.13,0000.09,0000.22,-000.10,-000.35,0000.02,0000.18,-000.17,0000.10,25.0,00.0,0657.1,34.3
2016-01-12T02:22:00Z,0000380,01000600,-000.55,-000.02,0000.02,0000.58,0000.05,-000.26,-000.23,0000.05,-000.47,25.0,00.0,0657.1,34.3
2016-01-12T02:23:00Z,0000380,01000600,-000.60,0000.23,0000.05,-000.21,0000.16,0000.19,0000.20,0000.05,0000.40,24.9,00.0,0657.1,34.3
2016-01-12T02:24:00Z,0000380,01000600,0000.47,0000.06,0000.25,0000.46,0000.08,0000.24,0000.06,0000.11,0000.12,25.0,00.0,0657.1,34.3
2016-01-12T02:25:00Z,0000380,01000600,0000.00,0000.80,0000.31,-000.48,0000.05,0000.08,-000.09,0000.04,-000.07,25.0,00.0,0657.1,34.3
2016-01-12T02:26:00Z,0000380,01000600,-000.38,0000.39,-000.12,-000.19,-000.38,0000.21,0000.11,-000.08,-000.08,25.0,00.0,0657.1,34.3
2016-01-12T02:27:00Z,0000380,01000600,-000.52,0000.00,0000.10,0000.18,0000.16,-000.02,0000.02,0000.13,0000.08,25.0,00.0,0657.1,34.3
2016-01-12T02:28:00Z,0000380,01000600,-000.52,0000.90,-000.28,0000.16,-000.22,-000.27,0000.01,0000.05,0000.18,25.0,00.0,0657.1,34.3
2016-01-12T02:29:00Z,0000380,01000600,0000.20,0000.39,0000.35,0000.13,-000.26,-000.05,0000.10,-000.03,-000.04,25.0,00.0,0657.1,34.3
2016-01-12T02:30:00Z,0000380,01000600,-000.58,0000.28,-000.06,-000.70,-000.77,-000.10,-000.08,0000.12,-000.14,25.1,00.0,0657.1,34.3
2016-01-12T02:31:00Z,0000380,01000600,-000.26,0000.03,0000.12,0000.72,0000.10,-000.08,0000.06,-000.29,0000.08,25.0,00.0,0657.1,34.3
2016-01-12T02:32:00Z,0000380,01000600,0000.31,0000.38,0000.01,-000.30,-000.05,-000.14,0000.22,0000.23,0000.13,25.0,00.0,0657.1,34.3
2016-01-12T02:33:00Z,0000380,01000600,-000.61,0000.24,0000.34,-000.19,-000.38,0000.06,-000.13,-000.06,-000.09,25.0,00.0,0657.2,34.3
2016-01-12T02:34:00Z,0000380,01000600,-000.78,0000.37,-000.02,-000.02,0000.13,-000.02,0000.10,0000.27,0000.27,25.0,00.0,0657.2,34.3
2016-01-12T02:35:00Z,0000380,01000600,-000.60,-000.61,0000.15,0000.11,-000.18,0000.06,0000.06,-000.04,-000.16,25.0,00.0,0657.2,34.3
2016-01-12T02:36:00Z,0000380,01000600,0000.38,0000.00,0000.33,0000.11,-000.18,0000.02,-000.04,-000.02,-000.21,24.9,00.0,0657.2,34.3
2016-01-12T02:37:00Z,0000380,01000600,-000.94,0000.24,0001.24,0000.30,-000.32,0000.14,-000.03,-000.04,0000.28,24.9,00.0,0657.2,34.3
2016-01-12T02:38:00Z,0000380,01000600,0000.14,0000.20,0000.26,-000.64,-000.48,0000.30,0000.18,-000.01,-000.21,25.0,00.0,0657.2,34.3
2016-01-12T02:39:00Z,0000380,01000600,0000.28,0000.19,-000.08,0000.18,-000.13,-000.14,0000.02,0000.10,0000.05,25.0,00.0,0657.2,34.3
2016-01-12T02:40:00Z,0000380,01000600,0000.04,0000.39,-000.05,0000.51,0000.03,-000.16,0000.18,0000.01,0000.17,25.0,00.0,0657.2,34.3
2016-01-12T02:41:00Z,0000380,01000600,-000.98,0000.23,0000.36,-000.75,0000.11,0000.13,-000.31,0000.02,0000.04,25.0,00.0,0657.3,34.3
2016-01-12T02:42:00Z,0000380,01000600,0000.16,0000.22,0000.39,-000.70,-000.14,-000.30,0000.14,0000.13,-000.07,25.0,00.0,0657.3,34.3
2016-01-12T02:43:00Z,0000380,01000600,-000.13,0000.25,0000.60,0000.14,-000.10,-000.26,0000.24,-000.14,0000.12,25.0,00.0,0657.3,34.3
2016-01-12T02:44:00Z,0000380,01000600,0000.41,0000.00,-000.10,-000.29,-000.45,-000.14,-000.26,0000.01,-000.02,25.0,00.0,0657.3,34.3
2016-01-12T02:45:00Z,0000380,01000600,-000.13,0000.54,0000.02,-000.13,0000.16,0000.08,0000.18,0000.11,0000.15,25.0,00.0,0657.4,34.3
2016-01-12T02:46:00Z,0000380,01000600,0000.07,0000.23,-000.22,0000.34,-000.05,-000.06,-000.06,-000.07,0000.02,25.0,00.0,0657.4,34.3
2016-01-12T02:47:00Z,0000380,01000600,0000.79,-000.02,0000.11,-000.10,-000.54,-000.24,0000.29,0000.18,-000.03,25.0,00.0,0657.5,34.3
2016-01-12T02:48:00Z,0000380,01000600,0000.07,0000.58,0000.06,0000.08,-000.32,0000.11,-000.19,0000.02,0000.01,25.0,00.0,0657.5,34.3
2016-01-12T02:49:00Z,0000380,01000600,-000.43,0000.50,0000.14,0000.30,-000.14,-000.02,0000.02,0000.06,-000.30,25.0,00.0,0657.5,34.3
2016-01-12T02:50:00Z,0000380,01000600,0000.18,0000.05,0000.17,0000.05,-000.02,0000.14,0000.08,0000.00,0000.13,24.9,00.0,0657.5,34.3
2016-01-12T02:51:00Z,0000380,01000600,0000.36,0000.15,-000.14,-000.21,-000.06,-000.08,-000.14,-000.04,0000.10,24.9,00.0,0657.5,34.3
2016-01-12T02:52:00Z,0000380,01000600,-000.34,-000.11,0000.32,-000.45,-000.10,0000.11,0000.14,0000.03,-000.10,24.9,00.0,0657.5,34.3
2016-01-12T02:53:00Z,0000380,01000600,-000.49,0000.33,-000.09,-000.29,0000.00,0000.37,-000.01,-000.13,-000.06,25.0,00.0,0657.6,34.3
2016-01-12T02:54:00Z,0000380,01000600,-000.12,0000.00,-000.03,-000.72,-000.14,-000.14,0000.09,0000.12,0000.27,25.0,00.0,0657.6,34.3
2016-01-12T02:55:00Z,0000380,01000600,0000.40,0000.58,-000.05,0000.03,0000.02,-000.11,0000.13,-000.01,0000.08,25.0,00.0,0657.5,34.3
2016-01-12T02:56:00Z,0000380,01000600,-000.34,0000.05,0000.26,-000.06,0000.14,0000.00,-000.04,-000.09,-000.20,25.0,00.0,0657.5,34.3
2016-01-12T02:57:00Z,0000380,41000600,,,,,,,,,,,,0657.4,34.3
2016-01-12T02:58:00Z,0000380,61000600,,,,,,,,,,24.8,00.0,0656.8,34.3
2016-01-12T02:59:00Z,0000380,21000600,,,,,,,,,,24.8,00.0,0656.7,34.3
2016-01-12T03:00:00Z,0000380,21000600,,,,,,,,,,24.8,00.0,0656.8,34.3
2016-01-12T03:01:00Z,0000380,21000600,,,,,,,,,,24.8,00.0,0656.8,34.3
2016-01-12T03:02:00Z,0000380,21000600,,,,,,,,,,24.8,00.0,0656.8,34.3
2016-01-12T03:03:00Z,0000380,61000600,,,,,,,,,,24.9,00.0,0656.8,34.3
2016-01-12T03:04:00Z,0000380,41000600,0000.37,0000.02,-000.37,0000.06,-000.03,-000.27,0000.08,0000.19,-000.28,25.0,00.0,0657.5,34.3
2016-01-12T03:05:00Z,0000380,01000600,0000.17,-000.49,-000.09,0000.21,0000.54,0000.16,-000.03,-000.06,0000.15,24.9,00.0,0657.5,34.3
2016-01-12T03:06:00Z,0000380,01000600,-001.41,0000.72,-000.21,-000.42,0000.43,0000.30,0000.02,0000.02,-000.10,24.9,00.0,0657.5,34.3
2016-01-12T03:07:00Z,0000380,01000600,0000.09,0000.15,0000.27,0000.21,0000.38,-000.03,-000.01,-000.08,0000.02,24.9,00.0,0657.5,34.3
2016-01-12T03:08:00Z,0000380,01000600,0000.45,0000.18,0000.20,-000.53,0000.08,0000.19,-000.09,-000.01,-000.04,25.0,00.0,0657.6,34.3
2016-01-12T03:09:00Z,0000380,01000600,-000.01,-000.24,0000.28,-000.14,-000.02,-000.21,0000.04,0000.01,0000.05,25.0,00.0,0657.6,34.3
2016-01-12T03:10:00Z,0000380,01000600,-000.75,-000.07,0000.28,-000.51,-000.32,0000.19,-000.08,0000.10,-000.06,25.1,00.0,0657.6,34.3
2016-01-12T03:11:00Z,0000380,01000600,-000.30,0000.19,0000.02,0000.18,0000.24,-000.05,0000.08,0000.02,0000.06,25.1,00.0,0657.6,34.3
2016-01-12T03:12:00Z,0000380,01000600,-000.02,0000.14,0000.49,-000.02,0000.10,0000.21,0000.15,-000.03,-000.09,25.2,00.0,0657.6,34.3